Location: Hoyos del Collado
(40.3594°N, 5.2003°W)
Time: 11:09:15
(UTC+00:00)

Cosmos 1727 Rocket - Pass Details

Date: 18 April 2024
Orbit: 960 x 997 km, 82.9° (Epoch: 21 May)

Event Time Altitude Azimuth Distance (km) Brightness Sun altitude
Exits shadow 21:49:07 69° 92° (E) 1,053 3.9 -27.7°
Drops below altitude 10° 21:55:18 10° 12° (NNE) 2,734 6.7 -28.5°
Sets 21:57:50 0° 10° (N) 3,680 7.5 -28.8°
